Alyeska Resort
Hourly Weather - Base Weather Site
ALY_BASE_HR 10/22/2014
CLICK TO VIEW GRAPH!!

        DATE  TIME   Air  BATT   H2o   H2o   Rel
                    Temp  Volt  Inch Since  Hum%
                      F   AVG   1HR  0600   AVG

  10/22/2014 14:00    27 14.14  0.00  0.00    92
  10/22/2014 13:00    25 14.16  0.00  0.00    94
  10/22/2014 12:00    24 14.16  0.00  0.00    96
  10/22/2014 11:00    25 14.16  0.00  0.00    97
  10/22/2014 10:00    24 14.17  0.00  0.00    96
  10/22/2014 09:00    25 14.16  0.00  0.00    97
  10/22/2014 08:00    25 14.15  0.00  0.00    97
  10/22/2014 07:00    26 14.14  0.00  0.00    96
  10/22/2014 06:00    27 14.11  0.00  0.00    96
  10/22/2014 05:00    28 14.10  0.00  0.00    96
  10/22/2014 04:00    29 14.10  0.00  0.00    93
  10/22/2014 03:00    29 14.09  0.00  0.00    93
  10/22/2014 02:00    30 14.08  0.00  0.00    93
  10/22/2014 01:00    30 14.07  0.00  0.00    92
  10/21/2014 24:00    31 14.06  0.00  0.00    93
  10/21/2014 23:00    31 14.04  0.00  0.00    92
  10/21/2014 22:00    33 14.02  0.00  0.00    90
  10/21/2014 21:00    34 13.99  0.00  0.00    90
  10/21/2014 20:00    35 13.94  0.00  0.00    90
  10/21/2014 19:00    36 13.90  0.00  0.00    92
  10/21/2014 18:00    38 13.87  0.00  0.00    90
  10/21/2014 17:00    40 13.85  0.00  0.00    88
  10/21/2014 16:00    39 13.87  0.00  0.00    92
  10/21/2014 15:00    39 13.89  0.00  0.00    92


CLICK TO VIEW GRAPH!!